Preview of NWS' New Version of Forecast
This preview is not operational and should not be used for support decisions.
Latest weather observations around

Auburn-Lewiston (KLEW)

Using English Units (Switch to International System of Units)
Date/ Time (EST) Wind (mph) Vis. (mi) Weather Sky Cond. Temp (°F) Rel. Humidity Wind Chill (°F) Heat Index (°F) Pressure Precip. (in)
Air Dwpt 6 hour Altimeter (inHg) Sea level (inHg) 1 hr 3 hr 6 hr
Max Min
Jan 16 16:56 SSW 7 10 Cloudy OVC070 33 21     61% 27   29.83 29.87      
Jan 16 15:56 SW 9 10 Cloudy FEW050 OVC075 34 21     59% 27   29.82 29.86      
Jan 16 14:56 WSW 8 10 Mostly Clear FEW041 35 22     58% 29   29.81 29.85      
Jan 16 13:56 SW 9 10 Mostly Cloudy BKN038 BKN050 35 21     56% 28   29.8 29.85      
Jan 16 12:56 SW 8 10 Mostly Cloudy BKN039 33 21     61% 26   29.8 29.85      
Jan 16 11:56 SSW 10 10 Cloudy OVC039 33 22     63% 25   29.81 29.86      
Jan 16 10:56 SSW 11 10 Cloudy BKN035 OVC042 30 22     71% 21   29.84 29.89      
Jan 16 09:56   10 Cloudy OVC047 31 23     72%     29.87 29.92      
Jan 16 08:56 S 10 10 Cloudy OVC038 24 20     84% 14   29.89 29.93      
Jan 16 07:56 SSE 6 10 Cloudy OVC038 22 19     88% 14   29.9 29.95      
Jan 16 06:56 SSE 6 10 Clear CLR 20 17     88% 12   29.92 29.97      
Jan 16 05:56 S 8 10 Cloudy OVC037 21 19     92% 11   29.93 29.98      
Jan 16 04:56 Calm 10 Mostly Clear FEW037 17 14     88%     29.93 29.98      
Jan 16 03:56 Calm 10 Mostly Clear FEW039 18 13     80%     29.95 29.99      
Jan 16 02:56 Calm 10 Mostly Cloudy FEW030 BKN065 23 17     78%     29.98 30.03      
Jan 16 01:56 Calm 10 Cloudy OVC065 24 20     84%     29.99 30.04      
Jan 16 00:56 Calm 10 Cloudy OVC065 25 19     78%     30 30.05      
Jan 15 23:56 Calm 10 Cloudy OVC060 25 20     81%     30.02 30.07      
Jan 15 22:56 Calm 10 Cloudy OVC065 25 20     81%     30.05 30.09      
Jan 15 21:56 Calm 10 Cloudy OVC065 24 19     81%     30.06 30.11      
Jan 15 20:56 Calm 10 Cloudy OVC055 25 19     78%     30.06 30.1      
Jan 15 19:56 Calm 10 Cloudy OVC060 24 19     81%     30.06 30.11      
Jan 15 18:56 Calm 10 Cloudy OVC042 24 17     74%     30.06 30.11      
Jan 15 17:56 NNE 3 10 Partly Cloudy SCT048 26 18     71% 22   30.05 30.1      
Jan 15 16:56 Calm 10 Cloudy OVC050 28 17     63%     30.03 30.08      
Jan 15 15:56 NW 7 10 Partly Cloudy SCT049 31 19     61% 24   30.03 30.08      
Jan 15 14:56 NW 10 10 Clear CLR 33 19     56% 25   30.02 30.07      
Jan 15 13:56 NW 13 10 Mostly Clear FEW034 34 19     54% 25   30.01 30.06      
Jan 15 12:56 NNW 8 10 Clear CLR 33 18     53% 26   30 30.05      
Jan 15 11:56 NW 9 10 Clear CLR 32 19     58% 24   30.01 30.06      
Jan 15 10:56 NNW 10 10 Clear   32 18     56% 24   30.03 30.08      
Jan 15 09:56 NNW 3 10 Clear CLR 29 18     63% 25   30.05 30.1      
Jan 15 08:56 Calm 10 Cloudy OVC045 17 12     80%     30.05 30.09      
Jan 15 07:56 Calm 10 Mostly Clear FEW049 9 5     84%     30.03 30.08      
Jan 15 06:56 Calm 10 Clear CLR 6 1     79%     30.03 30.08      
Jan 15 05:56 Calm 10 Clear CLR 7 1     76%     30.01 30.06      
Jan 15 04:56 N 3 10 Clear CLR 11 6     80% 5   29.99 30.04      
Jan 15 03:56 Calm 10 Clear CLR 9 4     80%     30 30.04      
Jan 15 02:56 Calm 10 Clear CLR 7 2     79%     30.01 30.06      
Jan 15 01:56 NNE 5 10 Clear CLR 10 8     91% 2   30.01 30.06      
Jan 15 00:56 Calm 10 Clear CLR 7 3     83%     30.02 30.07      
Jan 14 23:56 N 3 10 Clear CLR 8 5     87% 2   30.03 30.09      
Jan 14 22:56 NNE 3 10 Clear CLR 9 6     88% 3   30.06 30.11      
Jan 14 21:56 NNE 5 10 Clear CLR 10 6     84% 2   30.07 30.12      
Jan 14 20:56 Calm 10 Clear CLR 11 4     73%     30.08 30.14      
Jan 14 19:56 Calm 10 Clear CLR 10 3     73%     30.09 30.14      
Jan 14 18:56 Calm 10 Clear CLR 12 3     67%     30.1 30.16      
Jan 14 17:56 Calm 10 Clear CLR 13 3     64%     30.11 30.16      
Jan 14 16:56 Calm 10 Clear CLR 19 6     56%     30.12 30.17      
Jan 14 15:56 Calm 10 Clear CLR 29 10     45%     30.13 30.18      
Notice The following observation data may not be complete
Jan 14 14:56 Calm 10 Clear CLR   10      %     30.16 30.21      
Jan 14 13:56 Calm 10 Clear CLR 29 12     49%     30.17 30.22      
Jan 14 12:56 Calm 10 Clear CLR 27 11     50%     30.2 30.25      
Jan 14 11:56 Calm 10 Clear CLR 23 12     62%     30.24 30.29      
Jan 14 10:56 Calm 10 Clear CLR 22 9     57%     30.28 30.33      
Notice The following observation data may not be complete
Jan 14 09:56 Calm 10 Clear CLR          %     30.32 30.37      
Jan 14 08:56 Calm 10 Clear CLR 8 3     79%     30.32 30.37      
Jan 14 07:56 N 3 10 Clear CLR 0 -4     83% -8   30.31 30.37      
Jan 14 06:56 Calm 10 Clear CLR -2 -7     79%     30.32 30.37      
Jan 14 05:56 Calm 10 Clear CLR -2 -6     83%     30.32 30.37      
Jan 14 03:56 Calm 10 Clear CLR 0 -4     83%     30.34 30.4      
Jan 14 02:56 Calm 10 Clear CLR 1 -2     87%     30.37 30.42      
Jan 14 01:56 Calm 10 Clear CLR 1 -3     83%     30.38 30.44      
Jan 14 00:56 Calm 10 Clear CLR 3 -1     83%     30.38 30.43      
Jan 13 23:56 Calm 10 Clear CLR 3 -2     79%     30.38 30.43      
Jan 13 22:56 N 3 10 Clear CLR 5 1     83% -2   30.39 30.44      
Jan 13 21:56 Calm 10 Clear CLR 4 0     83%     30.39 30.45      
Jan 13 20:56 NNW 3 10 Clear CLR 7 4     87% 0   30.39 30.44      
Jan 13 19:56 Calm 10 Clear CLR 7 0     72%     30.4 30.46      
Jan 13 18:56 Calm 10 Clear CLR 13 8     81%     30.4 30.45      
Jan 13 17:56 Calm 10 Clear CLR 14 6     70%     30.4 30.45      
May 15 08:56 Calm 10 Mostly Cloudy BKN100 61 53     75%     29.77        
May 15 05:56 Calm 10 Clear CLR 45 44     97%     29.79 29.84      
May 15 03:03 SSE 6 1.75 Fog/Mist CLR 46 46     100% 43   29.83        
May 14 19:56 SSE 8 10 Clear CLR 58 51     78%     29.83 29.88     0
May 14 18:56 S 10 10 Clear CLR 61 52     72%     29.82 29.87      
May 13 15:56 S 15 10 Clear CLR 63 36     37%     30.11 30.16      
May 12 16:56 SSE 13 10 Clear CLR 55 30     38%     30.09 30.14      
May 12 08:56 5 10 Clear CLR 51 28     41%     30.24 30.29      
May 12 01:56 Calm 10 Clear CLR 34 27     75%     30.18 30.23      
May 11 22:56 N 3 10 Clear CLR 46 25     43% 45   30.15        
May 11 20:56 N 8 10 Clear CLR 51 19     28%     30.09 30.14      
May 11 13:56 N 16 10 Clear CLR 59 27     29%     29.95 30      
Jun 11 23:56 Calm 10 Clear CLR 75 61     62%   75 29.87 29.9      
Jun 11 19:56 SW 8 10 Clear   85 61     45%   85 29.8 29.82      
Jun 11 12:56   10 Clear CLR 87 61     42%   87 29.81 29.84      
Jun 11 11:56 SW 11 10 Clear   84 62     48%   85 29.85 29.88      
Jun 11 10:56 S 13 10 Clear   82 64     55%   84 29.87 29.9      
Jun 11 08:56 SW 9 10 Clear CLR 77 62     60%   77 29.9 29.94      
Jun 10 04:56 Calm 10 Clear CLR 51 50     96%     29.86 29.9      
Jun 09 21:56 WSW 6 10 Clear CLR 66 52     61%     29.69 29.73      
Jun 09 13:56 Calm 10 Rain   57 51     81%     29.63   0   0
Jun 09 12:56 WNW 3 10 Light Rain FEW041 BKN065 OVC075 61 46     58%     29.64 29.68 0    
Jun 09 05:56 Calm 10 Mostly Clear FEW120 50 47     89%     29.71 29.75      
Jun 08 19:56 SSE 8 10 Clear CLR 63 42     46%     29.9 29.94      
Notice The following observation data may not be complete
Jun 06 09:06   10 Light Rain            %         0    
Jun 06 04:56 NNE 7 10 Light Rain FEW019 OVC060 49 46     90% 46   29.93 29.98 0 0  
Jun 06 00:56 NE 7 10 Cloudy OVC055 50 46     86% 47   29.96 30.01